Year,Month,Day,Hour,Minute,Value (Times are PST for temperature in C)
2021,04,17,00,00,10.90
2021,04,17,00,01,10.90
2021,04,17,00,02,10.90
2021,04,17,00,03,10.90
2021,04,17,00,04,11.00
2021,04,17,00,05,11.00
2021,04,17,00,06,11.00
2021,04,17,00,07,11.00
2021,04,17,00,08,11.00
2021,04,17,00,09,11.00
2021,04,17,00,10,11.00
2021,04,17,00,11,11.00
2021,04,17,00,12,11.00
2021,04,17,00,13,10.90
2021,04,17,00,14,10.90
2021,04,17,00,15,10.90
2021,04,17,00,16,10.80
2021,04,17,00,17,10.80
2021,04,17,00,18,10.70
2021,04,17,00,19,10.70
2021,04,17,00,20,10.60
2021,04,17,00,21,10.60
2021,04,17,00,22,10.50
2021,04,17,00,23,10.50
2021,04,17,00,24,10.40
2021,04,17,00,25,10.40
2021,04,17,00,26,10.50
2021,04,17,00,27,10.60
2021,04,17,00,28,10.70
2021,04,17,00,29,10.80
2021,04,17,00,30,10.90
2021,04,17,00,31,11.00
2021,04,17,00,32,11.10
2021,04,17,00,33,11.10
2021,04,17,00,34,11.20
2021,04,17,00,35,11.20
2021,04,17,00,36,11.20
2021,04,17,00,37,11.20
2021,04,17,00,38,11.30
2021,04,17,00,39,11.30
2021,04,17,00,40,11.30
2021,04,17,00,41,11.30
2021,04,17,00,42,11.30
2021,04,17,00,43,11.30
2021,04,17,00,44,11.20
2021,04,17,00,45,11.10
2021,04,17,00,46,11.00
2021,04,17,00,47,10.90
2021,04,17,00,48,10.80
2021,04,17,00,49,10.70
2021,04,17,00,50,10.70
2021,04,17,00,51,10.60
2021,04,17,00,52,10.60
2021,04,17,00,53,10.60
2021,04,17,00,54,10.60
2021,04,17,00,55,10.50
2021,04,17,00,56,10.50
2021,04,17,00,57,10.50
2021,04,17,00,58,10.40
2021,04,17,00,59,10.40
2021,04,17,01,00,10.40
2021,04,17,01,01,10.30
2021,04,17,01,02,10.30
2021,04,17,01,03,10.30
2021,04,17,01,04,10.20
2021,04,17,01,05,10.20
2021,04,17,01,06,10.10
2021,04,17,01,07,10.00
2021,04,17,01,08,9.90
2021,04,17,01,09,9.80
2021,04,17,01,10,9.80
2021,04,17,01,11,9.70
2021,04,17,01,12,9.60
2021,04,17,01,13,9.60
2021,04,17,01,14,9.60
2021,04,17,01,15,9.50
2021,04,17,01,16,9.50
2021,04,17,01,17,9.50
2021,04,17,01,18,9.50
2021,04,17,01,19,9.50
2021,04,17,01,20,9.50
2021,04,17,01,21,9.50
2021,04,17,01,22,9.40
2021,04,17,01,23,9.40
2021,04,17,01,24,9.30
2021,04,17,01,25,9.30
2021,04,17,01,26,9.30
2021,04,17,01,27,9.20
2021,04,17,01,28,9.20
2021,04,17,01,29,9.20
2021,04,17,01,30,9.20
2021,04,17,01,31,9.20
2021,04,17,01,32,9.10
2021,04,17,01,33,9.10
2021,04,17,01,34,9.00
2021,04,17,01,35,9.00
2021,04,17,01,36,9.00
2021,04,17,01,37,9.00
2021,04,17,01,38,9.00
2021,04,17,01,39,9.00
2021,04,17,01,40,9.00
2021,04,17,01,41,8.90
2021,04,17,01,42,8.90
2021,04,17,01,43,8.90
2021,04,17,01,44,8.80
2021,04,17,01,45,8.90
2021,04,17,01,46,8.90
2021,04,17,01,47,9.00
2021,04,17,01,48,9.00
2021,04,17,01,49,9.10
2021,04,17,01,50,9.10
2021,04,17,01,51,9.20
2021,04,17,01,52,9.30
2021,04,17,01,53,9.40
2021,04,17,01,54,9.40
2021,04,17,01,55,9.50
2021,04,17,01,56,9.50
2021,04,17,01,57,9.50
2021,04,17,01,58,9.40
2021,04,17,01,59,9.40
2021,04,17,02,00,9.40
2021,04,17,02,01,9.50
2021,04,17,02,02,9.50
2021,04,17,02,03,9.50
2021,04,17,02,04,9.50
2021,04,17,02,05,9.40
2021,04,17,02,06,9.40
2021,04,17,02,07,9.40
2021,04,17,02,08,9.40
2021,04,17,02,09,9.40
2021,04,17,02,10,9.40
2021,04,17,02,11,9.40
2021,04,17,02,12,9.50
2021,04,17,02,13,9.60
2021,04,17,02,14,9.60
2021,04,17,02,15,9.50
2021,04,17,02,16,9.40
2021,04,17,02,17,9.30
2021,04,17,02,18,9.20
2021,04,17,02,19,9.20
2021,04,17,02,20,9.10
2021,04,17,02,21,9.10
2021,04,17,02,22,9.00
2021,04,17,02,23,9.00
2021,04,17,02,24,8.90
2021,04,17,02,25,8.90
2021,04,17,02,26,8.80
2021,04,17,02,27,8.80
2021,04,17,02,28,8.70
2021,04,17,02,29,8.70
2021,04,17,02,30,8.80
2021,04,17,02,31,8.80
2021,04,17,02,32,8.80
2021,04,17,02,33,8.80
2021,04,17,02,34,8.90
2021,04,17,02,35,8.90
2021,04,17,02,36,8.90
2021,04,17,02,37,9.00
2021,04,17,02,38,9.00
2021,04,17,02,39,9.00
2021,04,17,02,40,8.90
2021,04,17,02,41,8.90
2021,04,17,02,42,8.90
2021,04,17,02,43,8.90
2021,04,17,02,44,8.80
2021,04,17,02,45,8.80
2021,04,17,02,46,8.80
2021,04,17,02,47,8.70
2021,04,17,02,48,8.60
2021,04,17,02,49,8.60
2021,04,17,02,50,8.50
2021,04,17,02,51,8.50
2021,04,17,02,52,8.40
2021,04,17,02,53,8.40
2021,04,17,02,54,8.40
2021,04,17,02,55,8.50
2021,04,17,02,56,8.50
2021,04,17,02,57,8.50
2021,04,17,02,58,8.60
2021,04,17,02,59,8.60
2021,04,17,03,00,8.60
2021,04,17,03,01,8.60
2021,04,17,03,02,8.70
2021,04,17,03,03,8.80
2021,04,17,03,04,8.80
2021,04,17,03,05,8.80
2021,04,17,03,06,8.90
2021,04,17,03,07,8.90
2021,04,17,03,08,8.90
2021,04,17,03,09,8.90
2021,04,17,03,10,8.90
2021,04,17,03,11,8.90
2021,04,17,03,12,9.00
2021,04,17,03,13,9.00
2021,04,17,03,14,9.10
2021,04,17,03,15,9.00
2021,04,17,03,16,9.00
2021,04,17,03,17,9.00
2021,04,17,03,18,8.90
2021,04,17,03,19,8.90
2021,04,17,03,20,8.90
2021,04,17,03,21,9.00
2021,04,17,03,22,8.90
2021,04,17,03,23,9.00
2021,04,17,03,24,9.00
2021,04,17,03,25,8.90
2021,04,17,03,26,8.90
2021,04,17,03,27,8.80
2021,04,17,03,28,8.80
2021,04,17,03,29,8.70
2021,04,17,03,30,8.60
2021,04,17,03,31,8.60
2021,04,17,03,32,8.60
2021,04,17,03,33,8.60
2021,04,17,03,34,8.60
2021,04,17,03,35,8.60
2021,04,17,03,36,8.70
2021,04,17,03,37,8.80
2021,04,17,03,38,8.80
2021,04,17,03,39,9.00
2021,04,17,03,40,9.10
2021,04,17,03,41,9.20
2021,04,17,03,42,9.30
2021,04,17,03,43,9.30
2021,04,17,03,44,9.30
2021,04,17,03,45,9.20
2021,04,17,03,46,9.10
2021,04,17,03,47,9.00
2021,04,17,03,48,8.90
2021,04,17,03,49,8.80
2021,04,17,03,50,8.80
2021,04,17,03,51,8.80
2021,04,17,03,52,8.80
2021,04,17,03,53,8.70
2021,04,17,03,54,8.70
2021,04,17,03,55,8.60
2021,04,17,03,56,8.50
2021,04,17,03,57,8.40
2021,04,17,03,58,8.40
2021,04,17,03,59,8.30
2021,04,17,04,00,8.30
2021,04,17,04,01,8.30
2021,04,17,04,02,8.40
2021,04,17,04,03,8.50
2021,04,17,04,04,8.60
2021,04,17,04,05,8.70
2021,04,17,04,06,8.80
2021,04,17,04,07,8.90
2021,04,17,04,08,9.00
2021,04,17,04,09,9.00
2021,04,17,04,10,9.10
2021,04,17,04,11,9.10
2021,04,17,04,12,9.10
2021,04,17,04,13,9.10
2021,04,17,04,14,9.00
2021,04,17,04,15,8.90
2021,04,17,04,16,8.80
2021,04,17,04,17,8.80
2021,04,17,04,18,8.80
2021,04,17,04,19,8.80
2021,04,17,04,20,8.70
2021,04,17,04,21,8.60
2021,04,17,04,22,8.60
2021,04,17,04,23,8.50
2021,04,17,04,24,8.40
2021,04,17,04,25,8.30
2021,04,17,04,26,8.30
2021,04,17,04,27,8.30
2021,04,17,04,28,8.30
2021,04,17,04,29,8.40
2021,04,17,04,30,8.40
2021,04,17,04,31,8.40
2021,04,17,04,32,8.30
2021,04,17,04,33,8.30
2021,04,17,04,34,8.30
2021,04,17,04,35,8.30
2021,04,17,04,36,8.30
2021,04,17,04,37,8.30
2021,04,17,04,38,8.40
2021,04,17,04,39,8.50
2021,04,17,04,40,8.50
2021,04,17,04,41,8.50
2021,04,17,04,42,8.40
2021,04,17,04,43,8.30
2021,04,17,04,44,8.30
2021,04,17,04,45,8.20
2021,04,17,04,46,8.20
2021,04,17,04,47,8.20
2021,04,17,04,48,8.20
2021,04,17,04,49,8.20
2021,04,17,04,50,8.20
2021,04,17,04,51,8.20
2021,04,17,04,52,8.10
2021,04,17,04,53,8.10
2021,04,17,04,54,8.10
2021,04,17,04,55,8.10
2021,04,17,04,56,8.20
2021,04,17,04,57,8.20
2021,04,17,04,58,8.30
2021,04,17,04,59,8.30
2021,04,17,05,00,8.40
2021,04,17,05,01,8.40
2021,04,17,05,02,8.50
2021,04,17,05,03,8.50
2021,04,17,05,04,8.50
2021,04,17,05,05,8.50
2021,04,17,05,06,8.60
2021,04,17,05,07,8.60
2021,04,17,05,08,8.50
2021,04,17,05,09,8.50
2021,04,17,05,10,8.40
2021,04,17,05,11,8.30
2021,04,17,05,12,8.30
2021,04,17,05,13,8.20
2021,04,17,05,14,8.10
2021,04,17,05,15,8.00
2021,04,17,05,16,7.90
2021,04,17,05,17,7.80
2021,04,17,05,18,7.80
2021,04,17,05,19,7.80
2021,04,17,05,20,7.80
2021,04,17,05,21,7.80
2021,04,17,05,22,7.80
2021,04,17,05,23,7.80
2021,04,17,05,24,7.90
2021,04,17,05,25,8.00
2021,04,17,05,26,8.10
2021,04,17,05,27,8.20
2021,04,17,05,28,8.30
2021,04,17,05,29,8.30
2021,04,17,05,30,8.40
2021,04,17,05,31,8.40
2021,04,17,05,32,8.50
2021,04,17,05,33,8.60
2021,04,17,05,34,8.60
2021,04,17,05,35,8.60
2021,04,17,05,36,8.50
2021,04,17,05,37,8.50
2021,04,17,05,38,8.40
2021,04,17,05,39,8.40
2021,04,17,05,40,8.30
2021,04,17,05,41,8.20
2021,04,17,05,42,8.10
2021,04,17,05,43,8.00
2021,04,17,05,44,7.90
2021,04,17,05,45,7.90
2021,04,17,05,46,7.80
2021,04,17,05,47,7.70
2021,04,17,05,48,7.70
2021,04,17,05,49,7.70
2021,04,17,05,50,7.60
2021,04,17,05,51,7.60
2021,04,17,05,52,7.50
2021,04,17,05,53,7.40
2021,04,17,05,54,7.30
2021,04,17,05,55,7.30
2021,04,17,05,56,7.30
2021,04,17,05,57,7.30
2021,04,17,05,58,7.30
2021,04,17,05,59,7.30
2021,04,17,06,00,7.30
2021,04,17,06,01,7.30
2021,04,17,06,02,7.40
2021,04,17,06,03,7.40
2021,04,17,06,04,7.40
2021,04,17,06,05,7.40
2021,04,17,06,06,7.40
2021,04,17,06,07,7.40
2021,04,17,06,08,7.40
2021,04,17,06,09,7.50
2021,04,17,06,10,7.50
2021,04,17,06,11,7.50
2021,04,17,06,12,7.60
2021,04,17,06,13,7.60
2021,04,17,06,14,7.60
2021,04,17,06,15,7.60
2021,04,17,06,16,7.50
2021,04,17,06,17,7.50
2021,04,17,06,18,7.40
2021,04,17,06,19,7.30
2021,04,17,06,20,7.20
2021,04,17,06,21,7.10
2021,04,17,06,22,7.10
2021,04,17,06,23,7.00
2021,04,17,06,24,7.00
2021,04,17,06,25,6.90
2021,04,17,06,26,6.90
2021,04,17,06,27,7.00
2021,04,17,06,28,7.10
2021,04,17,06,29,7.20
2021,04,17,06,30,7.30
2021,04,17,06,31,7.40
2021,04,17,06,32,7.50
2021,04,17,06,33,7.50
2021,04,17,06,34,7.60
2021,04,17,06,35,7.70
2021,04,17,06,36,7.70
2021,04,17,06,37,7.70
2021,04,17,06,38,7.70
2021,04,17,06,39,7.80
2021,04,17,06,40,7.80
2021,04,17,06,41,7.80
2021,04,17,06,42,7.80
2021,04,17,06,43,7.80
2021,04,17,06,44,7.80
2021,04,17,06,45,7.80
2021,04,17,06,46,7.80
2021,04,17,06,47,7.80
2021,04,17,06,48,7.80
2021,04,17,06,49,7.90
2021,04,17,06,50,8.00
2021,04,17,06,51,8.10
2021,04,17,06,52,8.10
2021,04,17,06,53,8.20
2021,04,17,06,54,8.20
2021,04,17,06,55,8.30
2021,04,17,06,56,8.30
2021,04,17,06,57,8.30
2021,04,17,06,58,8.30
2021,04,17,06,59,8.40
2021,04,17,07,00,8.40
2021,04,17,07,01,8.40
2021,04,17,07,02,8.50
2021,04,17,07,03,8.50
2021,04,17,07,04,8.50
2021,04,17,07,05,8.60
2021,04,17,07,06,8.60
2021,04,17,07,07,8.50
2021,04,17,07,08,8.50
2021,04,17,07,09,8.50
2021,04,17,07,10,8.50
2021,04,17,07,11,8.50
2021,04,17,07,12,8.50
2021,04,17,07,13,8.40
2021,04,17,07,14,8.40
2021,04,17,07,15,8.50
2021,04,17,07,16,8.50
2021,04,17,07,17,8.60
2021,04,17,07,18,8.70
2021,04,17,07,19,8.70
2021,04,17,07,20,8.80
2021,04,17,07,21,8.80
2021,04,17,07,22,8.80
2021,04,17,07,23,8.80
2021,04,17,07,24,8.90
2021,04,17,07,25,8.90
2021,04,17,07,26,8.90
2021,04,17,07,27,8.90
2021,04,17,07,28,8.80
2021,04,17,07,29,8.80
2021,04,17,07,30,8.80
2021,04,17,07,31,8.80
2021,04,17,07,32,8.80
2021,04,17,07,33,8.80
2021,04,17,07,34,8.80
2021,04,17,07,35,8.90
2021,04,17,07,36,9.00
2021,04,17,07,37,9.00
2021,04,17,07,38,9.10
2021,04,17,07,39,9.20
2021,04,17,07,40,9.30
2021,04,17,07,41,9.40
2021,04,17,07,42,9.50
2021,04,17,07,43,9.50
2021,04,17,07,44,9.60
2021,04,17,07,45,9.60
2021,04,17,07,46,9.70
2021,04,17,07,47,9.70
2021,04,17,07,48,9.80
2021,04,17,07,49,9.80
2021,04,17,07,50,9.90
2021,04,17,07,51,10.00
2021,04,17,07,52,10.20
2021,04,17,07,53,10.30
2021,04,17,07,54,10.40
2021,04,17,07,55,10.50
2021,04,17,07,56,10.60
2021,04,17,07,57,10.70
2021,04,17,07,58,10.80
2021,04,17,07,59,10.90
2021,04,17,08,00,11.00
2021,04,17,08,01,11.20
2021,04,17,08,02,11.30
2021,04,17,08,03,11.50
2021,04,17,08,04,11.60
2021,04,17,08,05,11.80
2021,04,17,08,06,11.90
2021,04,17,08,07,12.00
2021,04,17,08,08,12.10
2021,04,17,08,09,12.20
2021,04,17,08,10,12.30
2021,04,17,08,11,12.30
2021,04,17,08,12,12.40
2021,04,17,08,13,12.40
2021,04,17,08,14,12.50
2021,04,17,08,15,12.50
2021,04,17,08,16,12.50
2021,04,17,08,17,12.60
2021,04,17,08,18,12.70
2021,04,17,08,19,12.80
2021,04,17,08,20,12.80
2021,04,17,08,21,12.90
2021,04,17,08,22,13.10
2021,04,17,08,23,13.20
2021,04,17,08,24,13.30
2021,04,17,08,25,13.30
2021,04,17,08,26,13.40
2021,04,17,08,27,13.50
2021,04,17,08,28,13.60
2021,04,17,08,29,13.60
2021,04,17,08,30,13.60
2021,04,17,08,31,13.50
2021,04,17,08,32,13.50
2021,04,17,08,33,13.40
2021,04,17,08,34,13.40
2021,04,17,08,35,13.40
2021,04,17,08,36,13.30
2021,04,17,08,37,13.30
2021,04,17,08,38,13.30
2021,04,17,08,39,13.30
2021,04,17,08,40,13.30
2021,04,17,08,41,13.30
2021,04,17,08,42,13.30
2021,04,17,08,43,13.30
2021,04,17,08,44,13.30
2021,04,17,08,45,13.40
2021,04,17,08,46,13.40
2021,04,17,08,47,13.40
2021,04,17,08,48,13.50
2021,04,17,08,49,13.50
2021,04,17,08,50,13.50
2021,04,17,08,51,13.60
2021,04,17,08,52,13.60
2021,04,17,08,53,13.70
2021,04,17,08,54,13.70
2021,04,17,08,55,13.80
2021,04,17,08,56,13.90
2021,04,17,08,57,13.90
2021,04,17,08,58,13.90
2021,04,17,08,59,14.00
2021,04,17,09,00,14.00
2021,04,17,09,01,14.00
2021,04,17,09,02,14.10
2021,04,17,09,03,14.10
2021,04,17,09,04,14.10
2021,04,17,09,05,14.10
2021,04,17,09,06,14.20
2021,04,17,09,07,14.20
2021,04,17,09,08,14.30
2021,04,17,09,09,14.30
2021,04,17,09,10,14.40
2021,04,17,09,11,14.40
2021,04,17,09,12,14.40
2021,04,17,09,13,14.50
2021,04,17,09,14,14.50
2021,04,17,09,15,14.50
2021,04,17,09,16,14.50
2021,04,17,09,17,14.50
2021,04,17,09,18,14.60
2021,04,17,09,19,14.60
2021,04,17,09,20,14.60
2021,04,17,09,21,14.60
2021,04,17,09,22,14.70
2021,04,17,09,23,14.80
2021,04,17,09,24,14.90
2021,04,17,09,25,15.00
2021,04,17,09,26,15.10
2021,04,17,09,27,15.20
2021,04,17,09,28,15.20
2021,04,17,09,29,15.30
2021,04,17,09,30,15.30
2021,04,17,09,31,15.40
2021,04,17,09,32,15.40
2021,04,17,09,33,15.30
2021,04,17,09,34,15.30
2021,04,17,09,35,15.30
2021,04,17,09,36,15.30
2021,04,17,09,37,15.30
2021,04,17,09,38,15.30
2021,04,17,09,39,15.30
2021,04,17,09,40,15.30
2021,04,17,09,41,15.40
2021,04,17,09,42,15.40
2021,04,17,09,43,15.40
2021,04,17,09,44,15.50
2021,04,17,09,45,15.50
2021,04,17,09,46,15.40
2021,04,17,09,47,15.50
2021,04,17,09,48,15.50
2021,04,17,09,49,15.50
2021,04,17,09,50,15.60
2021,04,17,09,51,15.60
2021,04,17,09,52,15.70
2021,04,17,09,53,15.80
2021,04,17,09,54,15.90
2021,04,17,09,55,16.00
2021,04,17,09,56,16.10
2021,04,17,09,57,16.20
2021,04,17,09,58,16.30
2021,04,17,09,59,16.50
2021,04,17,10,00,16.60
2021,04,17,10,01,16.70
2021,04,17,10,02,16.80
2021,04,17,10,03,16.80
2021,04,17,10,04,16.90
2021,04,17,10,05,16.80
2021,04,17,10,06,16.80
2021,04,17,10,07,16.80
2021,04,17,10,08,16.70
2021,04,17,10,09,16.70
2021,04,17,10,10,16.70
2021,04,17,10,11,16.80
2021,04,17,10,12,16.80
2021,04,17,10,13,16.90
2021,04,17,10,14,17.00
2021,04,17,10,15,17.10
2021,04,17,10,16,17.20
2021,04,17,10,17,17.40
2021,04,17,10,18,17.50
2021,04,17,10,19,17.70
2021,04,17,10,20,17.80
2021,04,17,10,21,17.90
2021,04,17,10,22,17.80
2021,04,17,10,23,17.80
2021,04,17,10,24,17.80
2021,04,17,10,25,17.80
2021,04,17,10,26,17.80
2021,04,17,10,27,17.80
2021,04,17,10,28,17.70
2021,04,17,10,29,17.70
2021,04,17,10,30,17.80
2021,04,17,10,31,17.80
2021,04,17,10,32,17.80
2021,04,17,10,33,17.80
2021,04,17,10,34,17.70
2021,04,17,10,35,17.70
2021,04,17,10,36,17.80
2021,04,17,10,37,17.80
2021,04,17,10,38,17.80
2021,04,17,10,39,17.80
2021,04,17,10,40,17.80
2021,04,17,10,41,17.80
2021,04,17,10,42,17.90
2021,04,17,10,43,17.90
2021,04,17,10,44,17.90
2021,04,17,10,45,17.90
2021,04,17,10,46,18.00
2021,04,17,10,47,18.00
2021,04,17,10,48,18.00
2021,04,17,10,49,18.00
2021,04,17,10,50,17.90
2021,04,17,10,51,17.90
2021,04,17,10,52,17.90
2021,04,17,10,53,17.80
2021,04,17,10,54,17.80
2021,04,17,10,55,17.80
2021,04,17,10,56,17.80
2021,04,17,10,57,17.80
2021,04,17,10,58,17.80
2021,04,17,10,59,17.90
2021,04,17,11,00,18.00
2021,04,17,11,01,18.00
2021,04,17,11,02,18.00
2021,04,17,11,03,18.10
2021,04,17,11,04,18.10
2021,04,17,11,05,18.20
2021,04,17,11,06,18.20
2021,04,17,11,07,18.30
2021,04,17,11,08,18.40
2021,04,17,11,09,18.50
2021,04,17,11,10,18.60
2021,04,17,11,11,18.70
2021,04,17,11,12,18.80
2021,04,17,11,13,18.90
2021,04,17,11,14,19.00
2021,04,17,11,15,19.10
2021,04,17,11,16,19.10
2021,04,17,11,17,19.20
2021,04,17,11,18,19.30
2021,04,17,11,19,19.30
2021,04,17,11,20,19.40
2021,04,17,11,21,19.40
2021,04,17,11,22,19.30
2021,04,17,11,23,19.30
2021,04,17,11,24,19.30
2021,04,17,11,25,19.40
2021,04,17,11,26,19.40
2021,04,17,11,27,19.50
2021,04,17,11,28,19.50
2021,04,17,11,29,19.50
2021,04,17,11,30,19.50
2021,04,17,11,31,19.60
2021,04,17,11,32,19.60
2021,04,17,11,33,19.60
2021,04,17,11,34,19.70
2021,04,17,11,35,19.70
2021,04,17,11,36,19.70
2021,04,17,11,37,19.70
2021,04,17,11,38,19.70
2021,04,17,11,39,19.80
2021,04,17,11,40,19.90
2021,04,17,11,41,19.90
2021,04,17,11,42,20.00
2021,04,17,11,43,20.10
2021,04,17,11,44,20.20
2021,04,17,11,45,20.30
2021,04,17,11,46,20.30
2021,04,17,11,47,20.40
2021,04,17,11,48,20.50
2021,04,17,11,49,20.50
2021,04,17,11,50,20.50
2021,04,17,11,51,20.50
2021,04,17,11,52,20.50
2021,04,17,11,53,20.60
2021,04,17,11,54,20.60
2021,04,17,11,55,20.60
2021,04,17,11,56,20.60
2021,04,17,11,57,20.60
2021,04,17,11,58,20.60
2021,04,17,11,59,20.50
2021,04,17,12,00,20.30
2021,04,17,12,01,20.20
2021,04,17,12,02,20.20
2021,04,17,12,03,20.10
2021,04,17,12,04,20.10
2021,04,17,12,05,20.10
2021,04,17,12,06,20.20
2021,04,17,12,07,20.20
2021,04,17,12,08,20.20
2021,04,17,12,09,20.20
2021,04,17,12,10,20.20
2021,04,17,12,11,20.20
2021,04,17,12,12,20.20
2021,04,17,12,13,20.20
2021,04,17,12,14,20.30
2021,04,17,12,15,20.30
2021,04,17,12,16,20.30
2021,04,17,12,17,20.30
2021,04,17,12,18,20.30
2021,04,17,12,19,20.30
2021,04,17,12,20,20.30
2021,04,17,12,21,20.30
2021,04,17,12,22,20.30
2021,04,17,12,23,20.30
2021,04,17,12,24,20.30
2021,04,17,12,25,20.40
2021,04,17,12,26,20.40
2021,04,17,12,27,20.50
2021,04,17,12,28,20.50
2021,04,17,12,29,20.50
2021,04,17,12,30,20.50
2021,04,17,12,31,20.40
2021,04,17,12,32,20.40
2021,04,17,12,33,20.40
2021,04,17,12,34,20.40
2021,04,17,12,35,20.40
2021,04,17,12,36,20.40
2021,04,17,12,37,20.40
2021,04,17,12,38,20.40
2021,04,17,12,39,20.40
2021,04,17,12,40,20.40
2021,04,17,12,41,20.50
2021,04,17,12,42,20.60
2021,04,17,12,43,20.70
2021,04,17,12,44,20.80
2021,04,17,12,45,20.80
2021,04,17,12,46,20.80
2021,04,17,12,47,20.80
2021,04,17,12,48,20.80
2021,04,17,12,49,20.80
2021,04,17,12,50,20.80
2021,04,17,12,51,20.90
2021,04,17,12,52,20.90
2021,04,17,12,53,20.90
2021,04,17,12,54,20.90
2021,04,17,12,55,20.90
2021,04,17,12,56,20.90
2021,04,17,12,57,20.90
2021,04,17,12,58,21.00
2021,04,17,12,59,21.00
2021,04,17,13,00,20.90
2021,04,17,13,01,20.90
2021,04,17,13,02,20.90
2021,04,17,13,03,20.80
2021,04,17,13,04,20.70
2021,04,17,13,05,20.70
2021,04,17,13,06,20.70
2021,04,17,13,07,20.70
2021,04,17,13,08,20.70
2021,04,17,13,09,20.70
2021,04,17,13,10,20.80
2021,04,17,13,11,20.80
2021,04,17,13,12,20.80
2021,04,17,13,13,20.80
2021,04,17,13,14,20.90
2021,04,17,13,15,20.90
2021,04,17,13,16,20.90
2021,04,17,13,17,20.90
2021,04,17,13,18,20.90
2021,04,17,13,19,20.90
2021,04,17,13,20,21.00
2021,04,17,13,21,21.00
2021,04,17,13,22,21.00
2021,04,17,13,23,21.00
2021,04,17,13,24,21.10
2021,04,17,13,25,21.10
2021,04,17,13,26,21.10
2021,04,17,13,27,21.10
2021,04,17,13,28,21.10
2021,04,17,13,29,21.10
2021,04,17,13,30,21.10
2021,04,17,13,31,21.10
2021,04,17,13,32,21.10
2021,04,17,13,33,21.10
2021,04,17,13,34,21.20
2021,04,17,13,35,21.20
2021,04,17,13,36,21.30
2021,04,17,13,37,21.40
2021,04,17,13,38,21.50
2021,04,17,13,39,21.60
2021,04,17,13,40,21.60
2021,04,17,13,41,21.60
2021,04,17,13,42,21.70
2021,04,17,13,43,21.70
2021,04,17,13,44,21.70
2021,04,17,13,45,21.80
2021,04,17,13,46,21.80
2021,04,17,13,47,21.70
2021,04,17,13,48,21.80
2021,04,17,13,49,21.80
2021,04,17,13,50,21.70
2021,04,17,13,51,21.70
2021,04,17,13,52,21.80
2021,04,17,13,53,21.90
2021,04,17,13,54,21.90
2021,04,17,13,55,21.90
2021,04,17,13,56,21.70
2021,04,17,13,57,21.60
2021,04,17,13,58,21.50
2021,04,17,13,59,21.50
2021,04,17,14,00,21.50
2021,04,17,14,01,21.50
2021,04,17,14,02,21.60
2021,04,17,14,03,21.70
2021,04,17,14,04,21.70
2021,04,17,14,05,21.80
2021,04,17,14,06,21.90
2021,04,17,14,07,21.90
2021,04,17,14,08,22.00
2021,04,17,14,09,21.90
2021,04,17,14,10,21.80
2021,04,17,14,11,21.70
2021,04,17,14,12,21.70
2021,04,17,14,13,21.70
2021,04,17,14,14,21.80
2021,04,17,14,15,21.80
2021,04,17,14,16,21.80
2021,04,17,14,17,21.90
2021,04,17,14,18,22.00
2021,04,17,14,19,22.10
2021,04,17,14,20,22.10
2021,04,17,14,21,22.20
2021,04,17,14,22,22.20
2021,04,17,14,23,22.20
2021,04,17,14,24,22.10
2021,04,17,14,25,22.10
2021,04,17,14,26,22.20
2021,04,17,14,27,22.20
2021,04,17,14,28,22.10
2021,04,17,14,29,22.10
2021,04,17,14,30,22.10
2021,04,17,14,31,22.00
2021,04,17,14,32,22.00
2021,04,17,14,33,22.00
2021,04,17,14,34,22.10
2021,04,17,14,35,22.10
2021,04,17,14,36,22.10
2021,04,17,14,37,22.20
2021,04,17,14,38,22.20
2021,04,17,14,39,22.20
2021,04,17,14,40,22.20
2021,04,17,14,41,22.30
2021,04,17,14,42,22.40
2021,04,17,14,43,22.50
2021,04,17,14,44,22.60
2021,04,17,14,45,22.60
2021,04,17,14,46,22.60
2021,04,17,14,47,22.60
2021,04,17,14,48,22.60
2021,04,17,14,49,22.70
2021,04,17,14,50,22.70
2021,04,17,14,51,22.80
2021,04,17,14,52,22.90
2021,04,17,14,53,22.90
2021,04,17,14,54,22.90
2021,04,17,14,55,22.90
2021,04,17,14,56,22.90
2021,04,17,14,57,22.90
2021,04,17,14,58,22.90
2021,04,17,14,59,22.80
2021,04,17,15,00,22.80
2021,04,17,15,01,22.80
2021,04,17,15,02,22.80
2021,04,17,15,03,22.80
2021,04,17,15,04,22.80
2021,04,17,15,05,22.70
2021,04,17,15,06,22.80
2021,04,17,15,07,22.80
2021,04,17,15,08,22.90
2021,04,17,15,09,22.90
2021,04,17,15,10,23.00
2021,04,17,15,11,23.10
2021,04,17,15,12,23.20
2021,04,17,15,13,23.20
2021,04,17,15,14,23.20
2021,04,17,15,15,23.20
2021,04,17,15,16,23.30
2021,04,17,15,17,23.30
2021,04,17,15,18,23.30
2021,04,17,15,19,23.30
2021,04,17,15,20,23.30
2021,04,17,15,21,23.40
2021,04,17,15,22,23.40
2021,04,17,15,23,23.40
2021,04,17,15,24,23.40
2021,04,17,15,25,23.30
2021,04,17,15,26,23.20
2021,04,17,15,27,23.10
2021,04,17,15,28,23.10
2021,04,17,15,29,23.10
2021,04,17,15,30,23.10
2021,04,17,15,31,23.10
2021,04,17,15,32,23.10
2021,04,17,15,33,23.10
2021,04,17,15,34,23.10
2021,04,17,15,35,23.10
2021,04,17,15,36,23.10
2021,04,17,15,37,23.20
2021,04,17,15,38,23.20
2021,04,17,15,39,23.30
2021,04,17,15,40,23.40
2021,04,17,15,41,23.40
2021,04,17,15,42,23.50
2021,04,17,15,43,23.60
2021,04,17,15,44,23.60
2021,04,17,15,45,23.60
2021,04,17,15,46,23.50
2021,04,17,15,47,23.50
2021,04,17,15,48,23.40
2021,04,17,15,49,23.40
2021,04,17,15,50,23.40
2021,04,17,15,51,23.50
2021,04,17,15,52,23.50
2021,04,17,15,53,23.50
2021,04,17,15,54,23.50
2021,04,17,15,55,23.50
2021,04,17,15,56,23.60
2021,04,17,15,57,23.60
2021,04,17,15,58,23.60
2021,04,17,15,59,23.60
2021,04,17,16,00,23.70
2021,04,17,16,01,23.70
2021,04,17,16,02,23.70
2021,04,17,16,03,23.60
2021,04,17,16,04,23.50
2021,04,17,16,05,23.40
2021,04,17,16,06,23.40
2021,04,17,16,07,23.40
2021,04,17,16,08,23.40
2021,04,17,16,09,23.40
2021,04,17,16,10,23.50
2021,04,17,16,11,23.50
2021,04,17,16,12,23.50
2021,04,17,16,13,23.50
2021,04,17,16,14,23.60
2021,04,17,16,15,23.60
2021,04,17,16,16,23.70
2021,04,17,16,17,23.70
2021,04,17,16,18,23.70
2021,04,17,16,19,23.70
2021,04,17,16,20,23.70
2021,04,17,16,21,23.70
2021,04,17,16,22,23.70
2021,04,17,16,23,23.70
2021,04,17,16,24,23.70
2021,04,17,16,25,23.70
2021,04,17,16,26,23.70
2021,04,17,16,27,23.70
2021,04,17,16,28,23.70
2021,04,17,16,29,23.70
2021,04,17,16,30,23.70
2021,04,17,16,31,23.70
2021,04,17,16,32,23.60
2021,04,17,16,33,23.60
2021,04,17,16,34,23.60
2021,04,17,16,35,23.60
2021,04,17,16,36,23.60
2021,04,17,16,37,23.60
2021,04,17,16,38,23.60
2021,04,17,16,39,23.60
2021,04,17,16,40,23.60
2021,04,17,16,41,23.70
2021,04,17,16,42,23.70
2021,04,17,16,43,23.70
2021,04,17,16,44,23.80
2021,04,17,16,45,23.80
2021,04,17,16,46,23.80
2021,04,17,16,47,23.80
2021,04,17,16,48,23.90
2021,04,17,16,49,23.90
2021,04,17,16,50,24.00
2021,04,17,16,51,24.00
2021,04,17,16,52,24.00
2021,04,17,16,53,24.00
2021,04,17,16,54,24.00
2021,04,17,16,55,23.90
2021,04,17,16,56,23.80
2021,04,17,16,57,23.80
2021,04,17,16,58,23.80
2021,04,17,16,59,23.70
2021,04,17,17,00,23.70
2021,04,17,17,01,23.70
2021,04,17,17,02,23.60
2021,04,17,17,03,23.60
2021,04,17,17,04,23.60
2021,04,17,17,05,23.60
2021,04,17,17,06,23.60
2021,04,17,17,07,23.70
2021,04,17,17,08,23.70
2021,04,17,17,09,23.70
2021,04,17,17,10,23.70
2021,04,17,17,11,23.70
2021,04,17,17,12,23.70
2021,04,17,17,13,23.70
2021,04,17,17,14,23.70
2021,04,17,17,15,23.70
2021,04,17,17,16,23.60
2021,04,17,17,17,23.60
2021,04,17,17,18,23.60
2021,04,17,17,19,23.60
2021,04,17,17,20,23.60
2021,04,17,17,21,23.60
2021,04,17,17,22,23.70
2021,04,17,17,23,23.70
2021,04,17,17,24,23.70
2021,04,17,17,25,23.70
2021,04,17,17,26,23.70
2021,04,17,17,27,23.70
2021,04,17,17,28,23.80
2021,04,17,17,29,23.80
2021,04,17,17,30,23.80
2021,04,17,17,31,23.80
2021,04,17,17,32,23.80
2021,04,17,17,33,23.80
2021,04,17,17,34,23.80
2021,04,17,17,35,23.80
2021,04,17,17,36,23.80